#timestamp,LO_Frequency,Hit 
1501639215.2,286047066.0,N
1501639235.1,286047066.8,N
1501639236.0,286047066.8,N
1501639255.8,286047066.7,N
1501639275.6,286047066.4,N
1501639295.4,286047066.7,N
1501639315.3,286047066.0,N
1501639335.1,286047065.9,N
1501639355.8,286047067.8,N
1501639375.7,286047069.6,N
1501639395.5,286047069.0,N
1501639415.3,286047068.6,N
1501639435.2,286047071.3,N
1501639455.9,286047070.3,N
1501639475.7,286047074.1,N
1501639495.6,286047071.8,N
1501639515.4,286047070.6,N
1501639535.2,286047072.3,N
1501639555.0,286047073.0,N
1501639556.0,286047073.0,N
1501639575.8,286047074.4,N
1501639595.6,286047076.2,N
1501639615.4,286047074.8,N
1501639635.3,286047068.6,N
1501639655.1,286047068.0,N
1501639675.8,286047067.8,N
1501639695.7,286047066.4,N
1501639715.5,286047065.7,N
1501639735.3,286047066.9,N
1501639755.2,286047069.8,N
1501639775.9,286047068.2,N
1501639795.7,286047070.0,N
1501639815.6,286047069.1,N
1501639835.4,286047070.8,N
1501639855.2,286047072.1,N
1501639875.0,286047072.8,N
1501639875.9,286047072.8,N
1501639895.8,286047070.1,N
1501639915.6,286047067.3,N
1501639935.4,286047067.4,N
1501639955.3,286047065.4,N
1501639975.1,286047067.3,N
1501639995.8,286047066.9,N
1501640015.7,286047069.1,N
1501640035.5,286047066.9,N
1501640055.3,286047069.9,N
1501640075.2,286047071.3,N
1501640095.9,286047071.6,N
1501640115.7,286047068.6,N
1501640135.5,286047071.7,N
1501640155.4,286047072.1,N
1501640175.2,286047073.2,N
1501640195.0,286047070.4,N
1501640195.9,286047070.4,N
1501640215.8,286047070.5,N
1501640235.6,286047072.7,N
1501640255.4,286047071.6,N
1501640275.3,286047068.1,N
1501640295.1,286047067.7,N
1501640296.0,286047067.7,N
1501640315.8,286047066.0,N
1501640335.7,286047065.9,N
1501640355.5,286047065.6,N
1501640375.3,286047068.4,N
1501640395.1,286047066.7,N
1501640415.9,286047066.2,N
1501640435.7,286047066.6,N
1501640455.5,286047067.8,N
1501640475.4,286047065.5,N
1501640495.2,286047066.1,N
1501640515.0,286047066.8,N
1501640515.9,286047066.8,N
1501640535.8,286047064.1,N
1501640555.6,286047065.5,N
1501640575.4,286047068.4,N
1501640595.3,286047065.4,N
1501640615.1,286047067.3,N
1501640616.0,286047067.3,N
1501640635.8,286047070.0,N
1501640655.7,286047069.5,N
1501640675.5,286047068.7,N
1501640695.3,286047073.2,N
1501640715.1,286047069.8,N
1501640735.9,286047073.3,N
1501640755.7,286047073.9,N
1501640775.5,286047072.0,N
1501640795.4,286047070.5,N
1501640815.2,286047070.4,N
1501640835.0,286047072.4,N
1501640835.9,286047072.4,N
1501640855.8,286047071.8,N
1501640875.6,286047070.2,N
1501640895.4,286047074.8,N
1501640915.3,286047074.5,N
1501640935.1,286047072.9,N
1501640936.0,286047072.9,N
1501640955.8,286047073.4,N
1501640975.6,286047072.8,N
1501640995.5,286047070.3,N
1501641015.3,286047072.2,N
1501641035.1,286047074.3,N
1501641055.9,286047074.7,N
1501641075.7,286047072.1,N
1501641095.5,286047072.6,N
1501641115.4,286047076.4,N
1501641135.2,286047076.2,N
1501641155.0,286047073.3,N
1501641155.9,286047073.3,N
1501641175.8,286047073.9,N
1501641195.6,286047074.6,N
1501641215.4,286047072.3,N
1501641235.3,286047074.5,N
1501641255.1,286047074.1,N
1501641256.0,286047074.1,N
1501641275.8,286047075.8,N
1501641295.7,286047075.0,N
1501641315.5,286047073.6,N
1501641335.3,286047071.9,N
1501641355.1,286047074.0,N
1501641375.9,286047073.6,N
1501641395.7,286047072.3,N
1501641415.5,286047076.1,N
1501641435.4,286047071.9,N
1501641455.2,286047071.7,N
1501641475.0,286047073.4,N
1501641475.9,286047073.4,N
1501641495.8,286047072.0,N
1501641515.6,286047070.7,N
1501641535.4,286047073.1,N
1501641555.3,286047074.8,N
1501641575.1,286047068.6,N
1501641576.0,286047068.6,N
1501641595.8,286047068.8,N
1501641615.7,286047070.9,N
1501641635.5,286047072.6,N
1501641655.3,286047073.1,N
1501641675.1,286047071.6,N
1501641695.9,286047068.9,N
1501641715.7,286047071.0,N
1501641735.5,286047070.5,N
1501641755.4,286047070.4,N
1501641775.2,286047071.4,N
1501641795.0,286047072.5,N
1501641795.9,286047072.5,N
1501641815.8,286047072.7,N
1501641835.6,286047071.3,N
1501641855.4,286047070.3,N
1501641875.3,286047071.2,N
1501641895.1,286047071.6,N
1501641896.0,286047071.6,N
1501641915.8,286047070.8,N
1501641935.6,286047068.9,N
1501641955.5,286047069.9,N
1501641975.3,286047070.8,N
1501641995.1,286047070.3,N
1501642015.9,286047068.9,N
1501642035.7,286047071.1,N
1501642055.5,286047069.8,N
1501642075.4,286047067.6,N
1501642095.2,286047068.1,N
1501642115.0,286047067.3,N
1501642115.9,286047067.3,N
1501642135.8,286047068.1,N
1501642155.6,286047069.5,N
1501642175.4,286047069.5,N
1501642195.3,286047069.6,N
1501642215.1,286047069.8,N
1501642216.0,286047069.8,N
1501642235.8,286047070.9,N
1501642255.7,286047069.4,N
1501642275.5,286047068.4,N
1501642295.3,286047068.3,N
1501642315.1,286047068.2,N
1501642335.9,286047067.1,N
1501642355.7,286047065.8,N
1501642375.5,286047068.1,N
1501642395.4,286047069.0,N
1501642415.2,286047071.3,N
1501642435.0,286047072.9,N
1501642435.9,286047072.9,N
1501642455.8,286047070.5,N
1501642475.6,286047069.2,N
1501642495.4,286047069.7,N
1501642515.3,286047071.6,N
1501642535.1,286047068.8,N
1501642536.0,286047068.8,N
1501642555.8,286047069.2,N
1501642575.6,286047071.4,N
1501642595.5,286047072.0,N
1501642615.3,286047072.9,N
1501642635.1,286047072.4,N
1501642655.9,286047072.9,N
1501642675.7,286047070.6,N
1501642695.5,286047073.0,N
1501642715.4,286047070.6,N
1501642735.2,286047071.6,N
1501642755.0,286047070.4,N
1501642755.9,286047070.4,N
1501642775.8,286047070.1,N
1501642795.6,286047070.9,N
